If you wish to contribute or participate in the discussions about articles you are invited to join SKYbrary as a registered user

 Actions

Florennes

From SKYbrary Wiki

EBFS
Airport
ICAO: EBFS
Summary
Name Florennes
Region Europe
Territory Belgium BE.gif
Location Florennes
Serving
Coordinates 50° 14' 28.92" N, 4° 39' 2.86" E
Runways
Designator Length Width Surface ROPS
08L/26R 3385 m11,105.643 ft
45 m147.638 ft
ASP /
08R/26L 2250 m7,381.89 ft
23 m75.459 ft
ASP /


METAR
Observation EBFS 291825Z 23003KT 5000 -DZ SCT004 BKN006 15/14 Q1017 YLO GRN TEMPO YLO
Station Florennes
Date/Time 29 September 2020 18:25:00
Wind direction 230°
Wind speed 03 kts
Lowest cloud amount scattered clouds
Temperature 15°C
Dew point 14°C
Humidity 93%
QNH 1017 hPa
Weather condition n/a


Florennes Airport

ICAO: EBFS IATA: ---

Description

Florennes Air Base is a Belgian Air Component military airfield located in Florennes, a municipality of Belgium. It is home to the 2nd Tactical Wing, operating F-16 Fighting Falcons. It also used to be the home to the Tactical Leadership Programme (TLP), a joint training program formed by 10 NATO members. On July 31, 2009, TLP moved to Albacete in Spain.

Climatology

Temperate Marine climate/Oceanic climate (Köppen climate classification Cfb) - Moderately cool summer and comparatively warm winter.

Maps

Terrain

Loading map...

Airport Layout

Loading map...


Accidents & Serious Incidents at or in vicinity of EBFS

None on SKYbrary